FREGAT R/B, 44300

Orbit data source: Space-Track

FREGAT R/B, 44300 is space debris in MEO originally from a launch on Mon, 27 May 2019 UTC launched from the Plesetsk Missile And Space Complex (PKMTR). Debris objects in space refer to the collection of defunct objects orbiting the Earth. Examples of debris include non-operational satellites, rocket bodies, and fragments generated from explosions, collisions, or faulty payload assembly.

Loading next visibility...
Identifier
44300, 2019-030B
Orbit
MEO
Country
Flag of CISCIS
Related business
Manufacturer
Lavochkin
Mission
Spacecraft
Bus & Motor
FREGAT, Unknown motor
Mass
1,000 kg wet, 1,000 kg dry
Launch date (UTC)
2019-05-27 (6 years ago)
Launch vehicle
Unknown
Launch site
Plesetsk Missile And Space Complex (PKMTR)
Object type
Payload
Rocket body
Debris
Shape & HBR
Cyl, 1.7 m
Radar Cross Section
8.354 m², Large (>1 m²)

Expand to show TLE details & history
Last TLE update: 3 weeks ago

TLE from 3 weeks ago
0 FREGAT R/B
1 44300U 19030B   25275.10944862  .00000003  00000-0  00000+0 0  9991
2 44300  64.3034 204.4291 0071272 135.6182 224.9636  2.09028716 48492
Epoch: 2025-10-02T02:37Z
TLE epoch observation values (Epoch: 2025-10-02T02:37:36.360Z)
Latitude
-0.00008°
Longitude
153.94817°
Altitude
19,591.688 km
Speed
3.908 km/s
True Right ascension
13h 37m 41s
True Declination
0° 00' 00"
Sunlit
Object was in daylight at epoch
Visualization orbit readout
Latitude
Unknown
Longitude
Unknown
Altitude
Unknown
Speed
Unknown
Apparent Right ascension
Unknown
Apparent Declination
Unknown
Sunlit
N/A
Visualization observer readout
Local Sidereal Time
03:20:13
Azimuth
Unknown
Elevation
Unknown
Doppler factor
Unknown
Orbital elements
Apogee altitude
19,643.996 km
Perigee altitude
19,275.691 km
Semi-major axis
25,837.98 km
Eccentricity
0.00713
Inclination
64.3034°
RAAN
204.4291°
Arg. of periapsis
135.6182°
True anomaly
224.39009°
Mean anomaly
224.9636°
Eccentric anomaly
224.67648°
Mean motion
0.52258 °/min
Orbital period
688.89 mins
BSTAR
0
Loading maneuver chart data...
Computing Atmospheric mass density...
Loading historical data...
Loading historical data...
Loading historical data...
Loading historical data...
Loading historical data...
Loading historical data...
Loading historical data...
Other satellites on launch #30 in the year 2019 (2019-05-27 UTC)

Documentation

Showing up to 5 results
|